When you browse on this site, cookies collect data to enhance your experience and personalize the content and advertising you see.
Visit our Privacy Policy to learn more. By continuing to use the site, you agree to this use of cookies and data.
  • En España
  • Lista de países
  • Para 7 días
  • Temperatura del agua
  • El tiempo en el mapa
  • Informadores
  • user-avatar
    Iniciar sesión

    Tiempo cada hora Camopi

    Hoy, 24 Febrero, Lunes

    Tiempo Temperatura Precipitaciones Viento Presión Humedad
    00:00 +25°C° 0 mm 1 mps 750 mmHg 98%
    01:00 +25°C° 0 mm 1 mps 749 mmHg 98%
    02:00 +25°C° 0 mm 1 mps 749 mmHg 99%
    03:00 +25°C° 0 mm 1 mps 748 mmHg 99%
    04:00 +25°C° 0 mm 1 mps 748 mmHg 99%
    05:00 +25°C° 0 mm 1 mps 748 mmHg 99%
    06:00 +25°C° 0 mm 1 mps 749 mmHg 99%
    07:00 +25°C° 0.1 mm 1 mps 749 mmHg 98%
    08:00 +26°C° 0.1 mm 1 mps 749 mmHg 98%
    09:00 +26°C° 0.1 mm 1 mps 750 mmHg 97%
    10:00 +27°C° 0.7 mm 1 mps 750 mmHg 94%
    11:00 +28°C° 0.7 mm 2 mps 750 mmHg 91%
    12:00 +29°C° 0.7 mm 2 mps 750 mmHg 87%
    13:00 +29°C° 2.7 mm 2 mps 749 mmHg 89%
    14:00 +29°C° 2.7 mm 2 mps 748 mmHg 91%
    15:00 +29°C° 2.7 mm 2 mps 748 mmHg 93%
    16:00 +28°C° 2 mm 2 mps 748 mmHg 94%
    17:00 +27°C° 2 mm 2 mps 747 mmHg 95%
    18:00 +26°C° 2 mm 2 mps 747 mmHg 96%
    19:00 +26°C° 0.2 mm 1 mps 748 mmHg 97%
    20:00 +26°C° 0.2 mm 1 mps 748 mmHg 98%
    21:00 +25°C° 0.2 mm 1 mps 749 mmHg 98%
    22:00 +25°C° 0.1 mm 1 mps 749 mmHg 98%
    23:00 +25°C° 0.1 mm 1 mps 749 mmHg 98%

    Mañana, 25 Febrero, Martes

    Tiempo Temperatura Precipitaciones Viento Presión Humedad
    00:00 +25°C° 0.1 mm 1 mps 750 mmHg 99%
    01:00 +25°C° 0 mm 1 mps 749 mmHg 98%
    02:00 +25°C° 0 mm 1 mps 749 mmHg 98%
    03:00 +24°C° 0 mm 1 mps 748 mmHg 98%
    04:00 +24°C° 0 mm 1 mps 748 mmHg 98%
    05:00 +24°C° 0 mm 1 mps 748 mmHg 98%
    06:00 +24°C° 0 mm 1 mps 748 mmHg 97%
    07:00 +25°C° 0 mm 1 mps 749 mmHg 96%
    08:00 +25°C° 0 mm 1 mps 749 mmHg 94%
    09:00 +26°C° 0 mm 1 mps 750 mmHg 92%
    10:00 +27°C° 0 mm 2 mps 750 mmHg 85%
    11:00 +28°C° 0 mm 2 mps 750 mmHg 77%
    12:00 +29°C° 0 mm 2 mps 750 mmHg 69%
    13:00 +30°C° 0 mm 2 mps 749 mmHg 66%
    14:00 +31°C° 0 mm 2 mps 748 mmHg 62%
    15:00 +32°C° 0 mm 2 mps 748 mmHg 58%
    16:00 +31°C° 0 mm 2 mps 747 mmHg 64%
    17:00 +30°C° 0 mm 2 mps 747 mmHg 69%
    18:00 +29°C° 0 mm 2 mps 747 mmHg 75%
    19:00 +27°C° 0 mm 2 mps 747 mmHg 80%
    20:00 +26°C° 0 mm 2 mps 748 mmHg 86%
    21:00 +25°C° 0 mm 1 mps 749 mmHg 91%
    22:00 +24°C° 0 mm 1 mps 749 mmHg 92%
    23:00 +24°C° 0 mm 1 mps 749 mmHg 94%

    Pasado mañana, 26 Febrero, Miércoles

    Tiempo Temperatura Precipitaciones Viento Presión Humedad
    00:00 +23°C° 0 mm 1 mps 749 mmHg 96%
    01:00 +23°C° 0 mm 1 mps 749 mmHg 96%
    02:00 +22°C° 0 mm 1 mps 749 mmHg 96%
    03:00 +22°C° 0 mm 1 mps 748 mmHg 96%
    04:00 +22°C° 0 mm 1 mps 748 mmHg 96%
    05:00 +22°C° 0 mm 1 mps 748 mmHg 96%
    06:00 +22°C° 0 mm 1 mps 748 mmHg 96%
    07:00 +23°C° 0 mm 1 mps 748 mmHg 88%
    08:00 +25°C° 0 mm 1 mps 749 mmHg 79%
    09:00 +27°C° 0 mm 2 mps 750 mmHg 71%
    10:00 +28°C° 0 mm 2 mps 750 mmHg 65%
    11:00 +30°C° 0 mm 2 mps 750 mmHg 59%
    12:00 +32°C° 0 mm 2 mps 750 mmHg 53%
    13:00 +32°C° 0 mm 2 mps 749 mmHg 52%
    14:00 +34°C° 0 mm 2 mps 748 mmHg 51%
    15:00 +34°C° 0 mm 2 mps 747 mmHg 51%
    16:00 +32°C° 0 mm 2 mps 747 mmHg 56%
    17:00 +31°C° 0 mm 1 mps 747 mmHg 61%
    18:00 +30°C° 0 mm 1 mps 747 mmHg 66%
    19:00 +28°C° 0 mm 2 mps 747 mmHg 73%
    20:00 +27°C° 0 mm 2 mps 748 mmHg 80%
    21:00 +25°C° 0 mm 2 mps 749 mmHg 87%
    22:00 +24°C° 0 mm 2 mps 749 mmHg 88%
    23:00 +23°C° 0 mm 1 mps 749 mmHg 90%

    27 Febrero, Jueves

    Tiempo Temperatura Precipitaciones Viento Presión Humedad
    00:00 +23°C° 0 mm 1 mps 749 mmHg 92%
    01:00 +22°C° 0 mm 1 mps 749 mmHg 92%
    02:00 +22°C° 0 mm 1 mps 748 mmHg 93%
    03:00 +22°C° 0 mm 1 mps 748 mmHg 94%
    04:00 +22°C° 0 mm 1 mps 748 mmHg 95%
    05:00 +21°C° 0 mm 1 mps 748 mmHg 96%
    06:00 +19°C° 0 mm 0 mps 748 mmHg 98%
    07:00 +23°C° 0 mm 1 mps 749 mmHg 90%
    08:00 +24°C° 0 mm 1 mps 749 mmHg 82%
    09:00 +26°C° 0 mm 2 mps 750 mmHg 75%
    10:00 +28°C° 0 mm 2 mps 750 mmHg 67%
    11:00 +30°C° 0 mm 2 mps 750 mmHg 60%
    12:00 +32°C° 0 mm 2 mps 750 mmHg 53%
    13:00 +32°C° 0 mm 1 mps 749 mmHg 49%
    14:00 +33°C° 0 mm 1 mps 748 mmHg 46%
    15:00 +34°C° 0 mm 1 mps 747 mmHg 42%
    16:00 +34°C° 0 mm 2 mps 747 mmHg 49%
    17:00 +31°C° 0 mm 2 mps 747 mmHg 56%
    18:00 +30°C° 0 mm 2 mps 747 mmHg 63%
    19:00 +28°C° 0 mm 2 mps 747 mmHg 69%
    20:00 +27°C° 0 mm 2 mps 748 mmHg 76%
    21:00 +25°C° 0 mm 2 mps 749 mmHg 83%
    22:00 +24°C° 0 mm 1 mps 749 mmHg 86%
    23:00 +24°C° 0 mm 1 mps 749 mmHg 89%

    28 Febrero, Viernes

    Tiempo Temperatura Precipitaciones Viento Presión Humedad
    00:00 +23°C° 0 mm 1 mps 750 mmHg 92%
    01:00 +23°C° 0 mm 1 mps 749 mmHg 94%
    02:00 +23°C° 0 mm 1 mps 748 mmHg 96%
    03:00 +22°C° 0 mm 1 mps 748 mmHg 98%
    04:00 +22°C° 0 mm 1 mps 748 mmHg 98%
    05:00 +22°C° 0 mm 1 mps 748 mmHg 99%
    06:00 +22°C° 0 mm 1 mps 748 mmHg 99%
    07:00 +24°C° 0 mm 1 mps 749 mmHg 92%
    08:00 +25°C° 0 mm 1 mps 750 mmHg 84%
    09:00 +27°C° 0 mm 2 mps 751 mmHg 77%
    10:00 +28°C° 0 mm 2 mps 750 mmHg 73%
    11:00 +29°C° 0 mm 1 mps 750 mmHg 68%
    12:00 +30°C° 0 mm 1 mps 750 mmHg 64%
    13:00 +31°C° 0 mm 1 mps 749 mmHg 60%
    14:00 +32°C° 0 mm 2 mps 749 mmHg 56%
    15:00 +34°C° 0 mm 2 mps 748 mmHg 52%
    16:00 +32°C° 0 mm 2 mps 748 mmHg 57%
    17:00 +31°C° 0 mm 2 mps 748 mmHg 61%
    18:00 +30°C° 0 mm 2 mps 748 mmHg 66%
    19:00 +28°C° 0 mm 2 mps 748 mmHg 72%
    20:00 +27°C° 0 mm 2 mps 749 mmHg 78%
    21:00 +25°C° 0 mm 2 mps 749 mmHg 83%
    22:00 +25°C° 0 mm 1 mps 749 mmHg 86%
    23:00 +24°C° 0 mm 1 mps 749 mmHg 89%

    29 Febrero, Sábado

    Tiempo Temperatura Precipitaciones Viento Presión Humedad
    00:00 +23°C° 0 mm 1 mps 749 mmHg 91%
    01:00 +23°C° 0 mm 1 mps 749 mmHg 92%
    02:00 +23°C° 0 mm 1 mps 749 mmHg 94%
    03:00 +23°C° 0 mm 1 mps 748 mmHg 95%
    04:00 +23°C° 0 mm 1 mps 748 mmHg 96%
    05:00 +23°C° 0 mm 1 mps 748 mmHg 97%
    06:00 +23°C° 0 mm 1 mps 749 mmHg 98%
    07:00 +24°C° 0 mm 1 mps 749 mmHg 90%
    08:00 +26°C° 0 mm 1 mps 750 mmHg 83%
    09:00 +28°C° 0 mm 1 mps 751 mmHg 75%
    10:00 +30°C° 0 mm 2 mps 750 mmHg 69%
    11:00 +31°C° 0 mm 2 mps 750 mmHg 62%
    12:00 +34°C° 0 mm 2 mps 750 mmHg 56%
    13:00 +32°C° 1.2 mm 2 mps 749 mmHg 65%
    14:00 +31°C° 1.2 mm 2 mps 748 mmHg 74%
    15:00 +30°C° 1.2 mm 2 mps 747 mmHg 84%
    16:00 +29°C° 1.7 mm 2 mps 747 mmHg 87%
    17:00 +28°C° 1.7 mm 2 mps 747 mmHg 91%
    18:00 +27°C° 1.7 mm 2 mps 747 mmHg 94%
    19:00 +27°C° 0.6 mm 1 mps 748 mmHg 95%
    20:00 +26°C° 0.6 mm 1 mps 749 mmHg 97%
    21:00 +25°C° 0.6 mm 1 mps 749 mmHg 98%
    22:00 +25°C° 0 mm 1 mps 749 mmHg 98%
    23:00 +25°C° 0 mm 1 mps 749 mmHg 99%
    Mostrar más